RH
22 23 20 13 10 8 6 4 4 4 4 4 4 4 4 4 5 4 4 4 4 4 4 4 5 6 8
15 11 10 6 4 4 3 3 3 3 3 3 3 3 3 3 3 3 3 3 2 3 3 3 3 3 3
6 5 5 4 4 3 2 2 2 2 2 3 2 2 2 2 2 3 3 3 3 3 3 3 3 3 3
5 4 3 3 3 3 3 2 2 2 2 2 2 2 2 2 2 2 2 2 2 2 2 2 2 2 2
4 3 2 3 3 2 3 3 2 3 2 2 3 2 2 2 2 2 2 2 2 2 2 2 2 2 2
3 3 3 3 2 3 3 3 3 3 2 2 2 2 2 2 2 2 2 2 2 2 2 2 2 2 2
4 3 3 3 3 3 2 2 2 2 2 2 2 2 2 2 2 2 2 2 2 2 2 2 2 2 2
3 3 3 2 2 2 2 2 2 2 2 2 2 2 3 4 3 3 3 3 3 2 2 2 2 2 2
3 2 2 2 2 2 2 3 3 4 4 4 4 3 4 4 4 4 4 3 3 3 3 3 3 2 2
3 3 3 3 3 4 4 5 5 4 5 6 6 6 4 6 5 4 4 4 4 4 4 3 3 3 2
3 3 4 4 5 6 7 8 7 8 9 8 7 7 6 6 6 6 5 5 5 4 4 3 3 3 3
4 4 5 6 8 8 9 10 10 11 10 10 8 7 8 8 7 7 6 6 5 4 4 3 3 3 3
6 7 8 9 10 10 10 11 12 12 12 12 12 11 9 8 9 9 7 7 6 5 4 4 3 3 3
9 10 11 12 11 11 11 10 11 14 13 12 15 13 11 10 9 9 7 7 6 5 4 4 3 3 3
12 12 14 15 16 15 15 15 14 13 13 14 18 17 13 11 10 11 7 7 7 6 4 4 4 3 3
14 15 16 16 17 20 19 16 16 18 14 15 18 20 16 12 12 13 8 9 8 7 4 4 4 4 4
14 15 16 19 18 18 19 19 14 16 18 14 17 20 18 15 13 14 10 10 9 8 6 4 4 4 4
Wind_Speed
115 118 119 122 123 122 120 117 117 119 117 115 113 112 111 112 113 115 116 116 117 117 116 119 121 124 129
122 123 125 119 112 108 104 101 99 101 102 101 101 101 101 100 100 101 102 103 102 101 101 102 101 102 104
119 115 110 105 100 97 94 93 91 91 88 89 89 89 89 89 88 88 90 91 92 92 92 93 93 94 95
108 103 100 96 92 87 85 82 81 78 81 81 78 79 79 78 79 78 78 79 80 82 83 83 83 83 85
100 95 91 86 83 81 77 77 75 72 75 71 69 71 71 72 71 72 71 72 73 73 74 74 74 75 76
92 86 84 80 78 75 72 68 68 62 69 64 62 65 63 61 60 63 64 63 63 63 63 65 68 70 72
85 81 79 74 71 68 65 61 58 60 61 57 54 53 52 51 51 54 53 52 54 54 56 58 59 61 62
79 75 71 68 64 61 59 54 48 48 50 51 50 45 39 43 43 42 42 44 45 46 47 48 50 54 56
70 68 64 60 58 55 51 47 43 40 40 40 41 41 33 37 35 34 36 38 38 39 40 41 43 45 49
64 60 57 53 49 47 47 45 42 39 34 34 33 36 28 32 31 28 29 30 30 32 33 36 37 40 44
57 53 50 47 43 41 40 40 39 34 33 32 31 28 27 26 27 27 25 25 25 26 27 29 32 35 36
51 48 45 42 40 37 35 33 35 35 33 30 29 26 24 24 23 23 21 21 20 21 21 22 24 27 30
45 43 41 39 36 34 33 31 32 34 30 28 27 25 22 21 20 21 18 16 16 16 15 17 19 21 24
40 39 38 37 36 34 31 29 25 28 28 26 23 22 17 18 17 17 13 11 10 11 11 13 15 18 20
40 39 38 37 36 35 32 30 27 24 25 23 19 18 15 14 14 13 8 7 5 5 6 9 14 17 19
40 39 38 37 35 33 34 32 26 23 21 20 17 15 13 11 11 10 4 4 2 1 6 12 16 18 19
42 40 38 36 37 35 33 31 26 20 18 16 15 12 12 9 9 7 2 2 4 4 6 15 19 21 23
Wind_Direction
298 294 291 289 289 286 285 284 283 281 280 280 279 277 275 274 272 270 269 267 266 264 262 260 259 258 258
297 297 296 292 291 290 288 286 283 281 280 280 279 277 274 271 269 269 268 268 267 266 265 263 261 259 257
303 298 296 295 294 292 290 288 286 283 283 281 278 276 276 274 273 271 269 267 266 265 263 262 260 259 257
302 299 298 298 296 294 293 291 288 288 283 280 280 277 276 276 273 271 269 267 266 265 263 261 259 258 256
302 301 300 300 298 297 294 292 291 289 285 285 284 280 278 276 274 272 269 267 265 263 262 261 260 257 255
303 304 302 301 299 298 296 295 293 288 288 289 285 283 281 279 277 274 272 269 266 265 262 258 255 253 251
306 306 304 303 302 300 298 297 296 294 292 290 285 283 283 280 275 274 273 270 267 263 259 259 258 255 252
308 307 305 304 303 302 301 299 296 293 292 291 289 285 283 280 278 275 272 268 266 263 260 255 250 250 249
309 308 307 306 306 305 303 303 300 296 292 290 291 289 287 281 278 276 273 269 266 263 260 258 254 248 245
310 310 309 308 308 308 307 305 304 301 296 295 293 294 290 287 284 280 277 276 273 268 264 260 255 248 243
312 311 310 310 309 308 306 307 306 304 306 306 302 297 294 289 291 293 290 286 279 272 266 258 252 247 240
314 313 311 309 308 307 307 309 308 310 311 311 308 303 299 299 300 300 294 290 285 278 269 261 251 242 235
313 311 312 311 308 306 306 308 310 309 311 311 309 307 305 308 309 307 296 299 293 287 278 264 250 237 228
311 310 308 308 309 310 311 310 307 304 308 310 311 312 313 310 311 306 301 307 300 295 276 247 231 216 209
313 311 311 312 312 314 314 314 314 309 310 313 316 317 316 314 311 308 310 317 316 291 245 213 197 183 180
314 313 311 310 310 310 313 315 312 310 311 312 316 322 318 318 317 315 330 344 12 267 195 168 158 153 161
315 311 307 308 309 309 310 310 317 313 305 306 311 323 320 318 322 320 18 35 91 96 175 156 146 142 148